This demonstration page uses our WeatherBlox Daily Observations layout. Learn more.

Left ArrowRight Arrow

39.51506, -84.39828

Hourly Observations for May 8, 2016

Temp ( °F °C ) Dew Point ( °F °C ) Humidity (%) Winds ( mph kmh ) Pressure ( in mb ) Visibility ( mi km ) Precip ( " mm )
12:15 am 00:15 Cloudy 60 15.3 29 -1.8 31 31 undefined N/A 29.83 1010 10 16.0934 N/A
12:35 am 00:35 Mostly Cloudy 60 15.3 27 -3 28 28 undefined N/A 29.83 1010 10 16.0934 N/A
12:55 am 00:55 Mostly Cloudy 58 14.5 24 -4.4 27 27 undefined N/A 29.83 1010 10 16.0934 N/A
1:15 am 01:15 Clear 57 13.8 25 -3.9 29 29 N N/A 29.83 1010 10 16.0934 N/A
1:35 am 01:35 Clear 55 12.8 26 -3.3 33 33 undefined N/A 29.85 1011 10 16.0934 N/A
1:55 am 01:55 Clear 55 12.5 28 -2.1 36 36 N N/A 29.88 1012 10 16.0934 N/A
2:15 am 02:15 Clear 55 12.5 30 -1 40 40 N N/A 29.88 1012 10 16.0934 N/A
2:35 am 02:35 Clear 55 12.5 31 -0.5 41 41 N N/A 29.88 1012 10 16.0934 N/A
2:55 am 02:55 Clear 55 12.5 30 -0.9 40 40 N N/A 29.88 1012 10 16.0934 N/A
3:15 am 03:15 Clear 51 10.5 32 -0.1 48 48 N N/A 29.88 1012 10 16.0934 N/A
3:35 am 03:35 Clear 49 9.6 36 2.2 60 60 N N/A 29.88 1012 10 16.0934 N/A
3:55 am 03:55 Clear 49 9.6 38 3.2 65 65 undefined N/A 29.88 1012 10 16.0934 N/A
4:15 am 04:15 Clear 49 9.6 39 4 68 68 N N/A 29.91 1013 10 16.0934 N/A
4:35 am 04:35 Clear 47 8.4 38 3.6 72 72 N N/A 29.88 1012 10 16.0934 N/A
4:55 am 04:55 Clear 48 8.9 38 3.6 70 70 N N/A 29.88 1012 10 16.0934 N/A
5:15 am 05:15 Clear 44 6.8 37 2.7 75 75 undefined N/A 29.88 1012 10 16.0934 N/A
5:35 am 05:35 Clear 44 6.8 37 2.5 74 74 undefined N/A 29.91 1013 10 16.0934 N/A
5:55 am 05:55 Clear 44 6.9 37 2.6 74 74 undefined N/A 29.91 1013 10 16.0934 N/A
6:15 am 06:15 Clear 42 5.5 35 1.8 77 77 undefined N/A 29.91 1013 10 16.0934 N/A
6:35 am 06:35 Sunny 42 5.5 36 2 78 78 N N/A 29.91 1013 10 16.0934 N/A
6:55 am 06:55 Sunny 42 5.5 36 2 78 78 N N/A 29.94 1014 10 16.0934 N/A
7:15 am 07:15 Sunny 43 6 36 2.4 78 78 N N/A 29.94 1014 10 16.0934 N/A
7:35 am 07:35 Sunny 44 6.8 38 3.1 78 78 N N/A 29.94 1014 10 16.0934 N/A
7:55 am 07:55 Sunny 49 9.6 43 5.9 78 78 N N/A 29.97 1015 10 16.0934 N/A
8:15 am 08:15 Sunny 49 9.6 39 4 68 68 N N/A 29.97 1015 10 16.0934 N/A
8:35 am 08:35 Sunny 52 11 37 2.7 57 57 undefined N/A 30 1016 10 16.0934 N/A
8:55 am 08:55 Sunny 55 12.5 38 3.3 54 54 N N/A 29.97 1015 10 16.0934 N/A
9:15 am 09:15 Sunny 55 12.5 37 2.9 52 52 NNE 3 6 29.97 1015 10 16.0934 N/A
9:35 am 09:35 Sunny 57 13.8 38 3.5 50 50 N N/A 29.97 1015 10 16.0934 N/A
9:55 am 09:55 Sunny 57 13.8 37 3 48 48 undefined N/A 30 1016 10 16.0934 N/A
10:15 am 10:15 Sunny 58 14.4 38 3.2 47 47 undefined N/A 30 1016 10 16.0934 N/A
10:35 am 10:35 Sunny 60 15.3 37 2.7 43 43 undefined N/A 29.97 1015 10 16.0934 N/A
10:55 am 10:55 Sunny 60 15.6 37 2.7 42 42 undefined N/A 29.97 1015 10 16.0934 N/A
11:15 am 11:15 Sunny 61 16 37 2.8 41 41 N N/A 29.97 1015 10 16.0934 N/A
11:35 am 11:35 Sunny 62 16.6 35 1.8 37 37 N N/A 29.97 1015 10 16.0934 N/A
11:55 am 11:55 Sunny 64 18 29 -1.6 27 27 undefined N/A 29.97 1015 10 16.0934 N/A
12:15 pm 12:15 Sunny 64 18 28 -2.1 26 26 undefined N/A 29.97 1015 10 16.0934 N/A
12:35 pm 12:35 Sunny 64 17.8 34 1 32 32 undefined N/A 29.97 1015 10 16.0934 N/A
12:55 pm 12:55 Sunny 62 16.6 35 1.4 36 36 undefined N/A 29.97 1015 10 16.0934 N/A
1:15 pm 13:15 Partly Cloudy 64 18 36 2 34 34 undefined N/A 30 1016 10 16.0934 N/A
1:35 pm 13:35 Partly Cloudy 63 17 33 0.5 33 33 undefined N/A 29.97 1015 10 16.0934 N/A
1:55 pm 13:55 Partly Cloudy 62 16.6 36 2.4 39 39 S 10 17 30 1016 10 16.0934 N/A
2:15 pm 14:15 Mostly Cloudy 61 16 39 3.8 44 44 SSW 8 13 30 1016 10 16.0934 N/A
2:35 pm 14:35 Mostly Cloudy 60 15.3 41 4.9 50 50 undefined N/A 29.97 1015 10 16.0934 N/A
2:55 pm 14:55 Cloudy 56 13.6 44 6.4 62 62 undefined N/A 30 1016 10 16.0934 N/A
3:15 pm 15:15 Cloudy with Rain 55 12.5 44 6.7 68 68 undefined N/A 30 1016 10 16.0934 N/A
3:35 pm 15:35 Cloudy with Light Rain 55 12.5 46 7.5 72 72 undefined N/A 30 1016 10 16.0934 N/A
3:55 pm 15:55 Partly Cloudy 56 13.4 46 7.5 68 68 undefined N/A 30 1016 10 16.0934 N/A
4:15 pm 16:15 Mostly Cloudy 55 12.5 42 5.8 64 64 undefined N/A 29.97 1015 10 16.0934 N/A
4:35 pm 16:35 Cloudy 56 13.6 44 6.6 63 63 undefined N/A 29.97 1015 10 16.0934 N/A
4:55 pm 16:55 Cloudy 57 13.8 44 6.7 62 62 SSW 7 11 30 1016 10 16.0934 N/A
5:15 pm 17:15 Partly Cloudy 57 14.1 43 6.2 59 59 undefined N/A 30 1016 10 16.0934 N/A
5:35 pm 17:35 Mostly Cloudy 58 14.2 44 6.7 61 61 SSW 6 9 29.97 1015 10 16.0934 N/A
5:55 pm 17:55 Cloudy 57 13.8 44 6.5 62 62 SSW 9 15 29.97 1015 10 16.0934 N/A
6:15 pm 18:15 Cloudy with Drizzle 57 13.8 44 6.9 63 63 NW 5 7 30 1016 10 16.0934 N/A
6:35 pm 18:35 Cloudy with Light Rain 57 13.8 46 8 68 68 N N/A 30 1016 10 16.0934 N/A
6:55 pm 18:55 Mostly Cloudy 57 13.8 47 8.1 69 69 undefined N/A 29.97 1015 10 16.0934 N/A
7:15 pm 19:15 Mostly Cloudy 57 13.8 47 8.3 70 70 undefined N/A 30 1016 10 16.0934 N/A
7:35 pm 19:35 Cloudy 57 13.8 48 9 73 73 undefined N/A 30 1016 10 16.0934 N/A
7:55 pm 19:55 Cloudy with Light Rain 57 13.8 47 8.5 71 71 undefined N/A 30 1016 10 16.0934 N/A
8:15 pm 20:15 Partly Cloudy with Light Rain 57 13.8 48 9 73 73 N N/A 30 1016 10 16.0934 N/A
8:35 pm 20:35 Mostly Cloudy with Light Rain 57 13.8 49 9.5 75 75 undefined N/A 30 1016 10 16.0934 N/A
8:55 pm 20:55 Cloudy 55 12.5 48 8.8 78 78 undefined N/A 30 1016 10 16.0934 N/A
9:15 pm 21:15 Cloudy 55 12.5 48 9 79 79 undefined N/A 30.03 1017 10 16.0934 N/A
9:35 pm 21:35 Cloudy 55 12.5 48 9.1 80 80 undefined N/A 30.03 1017 10 16.0934 N/A
9:55 pm 21:55 Cloudy 55 12.5 49 9.2 80 80 undefined N/A 30.03 1017 10 16.0934 N/A
10:15 pm 22:15 Cloudy 55 12.5 49 9.2 80 80 undefined N/A 30.03 1017 10 16.0934 N/A
10:35 pm 22:35 Cloudy 55 12.5 48 9 79 79 undefined N/A 30.03 1017 10 16.0934 N/A
10:55 pm 22:55 Mostly Cloudy 55 12.5 48 9 79 79 N N/A 30.03 1017 10 16.0934 N/A
11:15 pm 23:15 Mostly Cloudy 55 12.5 48 9 79 79 undefined N/A 30.03 1017 10 16.0934 N/A
11:35 pm 23:35 Cloudy 55 12.5 48 9.1 80 80 undefined N/A 30 1016 10 16.0934 N/A
11:55 pm 23:55 Mostly Cloudy 55 12.5 48 9.1 80 80 undefined N/A 30.03 1017 10 16.0934 N/A

Powered by AerisWeather